Regional Weather Roundup
Issued by NWS

Home | Current Version | Previous Version | Text Only | Print | Product List | Glossary Off
Versions: 1 2 3 4 5 6 7 8 9 10 11 12 13 14 15 16 17 18 19 20 21 22 23 24 25 26 27 28 29 30 31 32 33 34 35 36 37 38 39 40 41 42 43 44 45 46 47 48 49 50

000
ASUS43 KOAX 010502
RWRNE

WEATHER ROUNDUP FOR NEBRASKA
NATIONAL WEATHER SERVICE OMAHA NE
1200 AM CDT SAT AUG 01 2015

NOTES: SATELLITE DATA IS BEING USED TO AUGMENT CLOUD COVER ABOVE
       12000 FEET.
       "FAIR" INDICATES FEW OR NO CLOUDS BELOW 12,000 FEET WITH NO
       SIGNIFICANT WEATHER AND/OR OBSTRUCTIONS TO VISIBILITY.

  * THESE STATIONS DO NOT REPORT WEATHER SUCH AS RAIN...SNOW OR FOG.

NEZ001>004-019>022-054>056-010600-
NEBRASKA PANHANDLE

CITY           SKY/WX    TMP DP  RH WIND       PRES   REMARKS
SCOTTSBLUFF    CLEAR     67  57  70 E7        30.16S
ALLIANCE       CLEAR     64  56  75 S8        30.16S
CHADRON        PTCLDY    66  55  67 NE8       30.11S
KIMBALL        CLEAR     63  50  63 S5        30.22S
SIDNEY         CLEAR     64  51  62 S7        30.21S
$$

NEZ057>060-069>072-079>082-010600-
SOUTHWEST NEBRASKA

CITY           SKY/WX    TMP DP  RH WIND       PRES   REMARKS
NORTH PLATTE   CLEAR     69  59  70 E10       30.14S
IMPERIAL       CLEAR     70  58  65 SE3       30.15R
MCCOOK         CLEAR     77  62  59 S5        30.11S
$$

NEZ005>010-023>029-035>040-094-010600-
NORTH CENTRAL NEBRASKA

CITY           SKY/WX    TMP DP  RH WIND       PRES   REMARKS
VALENTINE      CLEAR     73  61  65 E8        30.13R
AINSWORTH      CLEAR     67  62  84 SE5       30.15R
BROKEN BOW     CLEAR     70  58  65 S3        30.14S
ORD            CLEAR     65  63  93 CALM      30.11S
$$

NEZ041-046>049-061>064-073>077-083>087-010600-
SOUTH CENTRAL NEBRASKA

CITY           SKY/WX    TMP DP  RH WIND       PRES   REMARKS
GRAND ISLAND   PTCLDY    70  61  73 SW3       30.11S
AURORA         PTCLDY    65  63  91 W5        30.09F
HASTINGS       PTCLDY    76  63  64 S10       30.11S THUNDER
HEBRON         MOCLDY    72  63  73 SE5       30.09S
HOLDREGE       CLEAR     66  61  85 SE3       30.13S
KEARNEY *      CLEAR     66  57  72 SE7       30.12F
$$

NEZ011>018-030>034-042>045-010600-
NORTHEAST NEBRASKA

CITY           SKY/WX    TMP DP  RH WIND       PRES   REMARKS
NORFOLK        CLEAR     63  60  90 CALM      30.10R
ALBION         CLEAR     63  60  90 CALM      30.11S
BLAIR          CLEAR     73  68  85 CALM      30.08S
COLUMBUS *     CLEAR     61  54  77 SE6       30.11R
FREMONT        CLEAR     69  66  88 NW3       30.09S
TEKAMAH        CLEAR     68  66  93 CALM      30.08R
$$

NEZ050>053-065>068-078-088>093-010600-
SOUTHEAST NEBRASKA

CITY           SKY/WX    TMP DP  RH WIND       PRES   REMARKS
LINCOLN        CLEAR     70  64  81 N5        30.09R
OMAHA EPPLEY   CLEAR     75  70  84 CALM      30.06R
BEATRICE       PTCLDY    70  66  87 CALM      30.08S
FALLS CITY     CLEAR     73  67  81 E6        30.07S
NEBRASKA CITY  CLEAR     68  65  92 S3        30.09S
$$

NEZ044-045-051>053-067-010600-
OMAHA AREA

CITY           SKY/WX    TMP DP  RH WIND       PRES   REMARKS
OMAHA EPPLEY   CLEAR     75  70  84 CALM      30.06R
BLAIR          CLEAR     73  68  85 CALM      30.08S
FREMONT        CLEAR     69  66  88 NW3       30.09S
WAHOO          FAIR      69  66  92 N7        30.08S
$$


USA.gov is the U.S. government's official web portal to all federal, state and local government web resources and services.